Location: Beverley
(50.2667°N, 107.9667°W)
Time: 23:59:58
(UTC+00:00)

Envisat - Pass Details

Date: 26 January 2022
Orbit: 764 x 765 km, 98.2° (Epoch: 22 May)

Event Time Altitude Azimuth Distance (km) Brightness Sun altitude
Rises 12:36:18 0° 12° (NNE) 3,243 6.4 -21.8°
Reaches altitude 10° 12:38:38 10° 9° (N) 2,313 5.5 -21.5°
Maximum altitude 12:43:40 66° 289° (WNW) 839 2.9 -20.7°
Drops below altitude 10° 12:48:41 10° 208° (SSW) 2,298 5.2 -19.9°
Sets 12:51:00 0° 205° (SSW) 3,220 6.0 -19.5°
